Weather History for Ogden, UT

Change the Weather History Date:

Tuesday, April 1, 2014

  Actual Average Record
Temperature  
Mean Temperature 40 °F -  
Max Temperature 46 °F 56 °F 73 °F (1990)
Min Temperature 33 °F 33 °F 18 °F (1936)
Degree Days  
Heating Degree Days 26    
Moisture  
Dew Point 33 °F    
Average Humidity 82    
Maximum Humidity 92    
Minimum Humidity 61    
Precipitation  
Precipitation 0.18 in - - ()
Sea Level Pressure  
Sea Level Pressure 29.70 in    
Wind  
Wind Speed 7 mph (SSW)    
Max Wind Speed 22 mph    
Max Gust Speed 31 mph    
Visibility 8 miles    
Events Fog , Rain , Snow    
Averages and records for this station are not official NWS values.
T = Trace of Precipitation, MM = Missing Value Source: NWS Daily Summary

Daily Weather History Graph

Daily Weather History Graph

Search for Another Location

Airport:

Trip Planner

Search our weather history database for the weather conditions in past years. The results will help you decide how hot, cold, wet, or windy it might be!

Date:

Astronomy

Apr. 01, 2014 Rise Set
Actual Time 7:11 AM MDT 7:53 PM MDT
Civil Twilight 6:43 AM MDT 8:21 PM MDT
Nautical Twilight 6:10 AM MDT 8:54 PM MDT
Astronomical Twilight 5:36 AM MDT 9:28 PM MDT
Moon 8:15 AM MDT (4/1) 10:21 PM MDT (4/1)
Length of Visible Light 13h 37m
Length of Day
12h 42m
Waxing Crescent, 5% of the Moon is Illuminated
Apr 1
Waxing Crescent
Apr 7
First Quarter
Apr 15
Full
Apr 22
Last Quarter
Apr 29
New

Hourly Weather History & Observations

Time (MDT) Temp. Windchill Dew Point Humidity Pressure Visibility Wind Dir Wind Speed Gust Speed Precip Events Conditions
12:53 AM 39.0 °F 36.8 °F 33.1 °F 79% 29.73 in 10.0 mi ESE 3.5 mph - 0.00 in Rain Light Rain
1:53 AM 39.0 °F - 33.1 °F 79% 29.69 in 10.0 mi Calm Calm - 0.00 in   Mostly Cloudy
2:53 AM 39.9 °F - 33.1 °F 77% 29.66 in 10.0 mi Calm Calm - N/A   Overcast
3:45 AM 39.0 °F - 33.1 °F 79% 29.71 in 5.0 mi Calm Calm - 0.02 in Rain Light Rain
3:53 AM 39.0 °F - 34.0 °F 82% 29.67 in 6.0 mi Calm Calm - 0.03 in Rain Light Rain
4:53 AM 39.0 °F 36.8 °F 35.1 °F 86% 29.64 in 7.0 mi SSE 3.5 mph - 0.05 in Rain Light Rain
5:18 AM 39.0 °F 36.8 °F 36.0 °F 89% 29.67 in 9.0 mi East 3.5 mph - 0.01 in Rain Light Rain
5:53 AM 39.0 °F 35.7 °F 35.1 °F 86% 29.61 in 10.0 mi NNE 4.6 mph - 0.01 in   Overcast
6:53 AM 37.0 °F 30.4 °F 34.0 °F 89% 29.59 in 10.0 mi SSE 9.2 mph - N/A   Scattered Clouds
7:53 AM 37.9 °F 32.7 °F 33.1 °F 83% 29.59 in 10.0 mi SSE 6.9 mph - N/A   Overcast
8:53 AM 41.0 °F 37.1 °F 34.0 °F 76% 29.60 in 10.0 mi SSE 5.8 mph - N/A   Overcast
9:38 AM 43.0 °F 38.2 °F 33.1 °F 68% 29.63 in 10.0 mi SE 8.1 mph 18.4 mph 0.01 in Rain Light Rain
9:45 AM 42.1 °F 37.7 °F 34.0 °F 73% 29.64 in 10.0 mi SSE 6.9 mph - 0.01 in Rain Light Rain
9:53 AM 43.0 °F 38.8 °F 33.1 °F 68% 29.60 in 10.0 mi Variable 6.9 mph - 0.01 in Rain Light Rain
10:53 AM 45.0 °F 38.9 °F 33.1 °F 63% 29.61 in 10.0 mi SSW 12.7 mph - 0.00 in   Overcast
11:53 AM 46.9 °F - 34.0 °F 61% 29.61 in 10.0 mi SSW 13.8 mph - 0.00 in   Overcast
12:48 PM 42.8 °F 33.8 °F 35.6 °F 76% 29.68 in 10.0 mi WSW 21.9 mph 28.8 mph 0.00 in Rain Light Rain
12:53 PM 41.0 °F 32.2 °F 35.1 °F 79% 29.66 in 8.0 mi WSW 18.4 mph 31.1 mph 0.00 in Rain Light Rain
12:58 PM 39.9 °F 30.0 °F 35.1 °F 83% 29.69 in 8.0 mi West 21.9 mph 31.1 mph 0.00 in Rain Light Rain
1:13 PM 35.1 °F 24.1 °F 32.0 °F 89% 29.70 in 3.0 mi West 19.6 mph 28.8 mph 0.01 in Snow Light Snow
1:20 PM 35.1 °F 24.5 °F 32.0 °F 89% 29.70 in 1.8 mi West 18.4 mph 27.6 mph 0.02 in Snow Light Snow
1:32 PM 34.0 °F 23.8 °F 32.0 °F 92% 29.71 in 0.5 mi West 16.1 mph 25.3 mph 0.03 in Fog , Snow Snow
1:39 PM 33.1 °F 23.0 °F 30.9 °F 92% 29.72 in 0.2 mi West 15.0 mph - 0.04 in Fog , Snow Snow
1:53 PM 33.1 °F 25.5 °F 30.9 °F 92% 29.72 in 0.5 mi WSW 9.2 mph - 0.06 in Fog , Snow Snow
2:05 PM 34.0 °F 26.0 °F 32.0 °F 92% 29.73 in 1.0 mi WSW 10.4 mph - 0.00 in Snow Light Snow
2:14 PM 34.0 °F 28.8 °F 32.0 °F 92% 29.73 in 2.5 mi West 5.8 mph - 0.01 in Snow Light Snow
2:23 PM 35.1 °F 28.6 °F 33.1 °F 92% 29.73 in 5.0 mi West 8.1 mph - 0.01 in Snow Light Snow
2:53 PM 36.0 °F 28.5 °F 33.1 °F 89% 29.73 in 9.0 mi West 10.4 mph - 0.01 in Rain Light Rain
3:05 PM 37.0 °F 31.6 °F 33.1 °F 86% 29.74 in 10.0 mi West 6.9 mph - 0.01 in Rain Light Rain
3:33 PM 37.9 °F 32.1 °F 33.1 °F 83% 29.74 in 10.0 mi West 8.1 mph - 0.01 in Rain Light Rain
3:45 PM 39.0 °F 33.4 °F 33.1 °F 79% 29.74 in 10.0 mi WNW 8.1 mph - 0.01 in   Overcast
3:53 PM 39.0 °F 34.0 °F 33.1 °F 79% 29.72 in 10.0 mi West 6.9 mph - 0.01 in   Overcast
4:09 PM 39.9 °F 34.5 °F 33.1 °F 77% 29.74 in 10.0 mi West 8.1 mph - N/A   Overcast
4:35 PM 39.0 °F 33.4 °F 32.0 °F 76% 29.74 in 10.0 mi WSW 8.1 mph - 0.00 in Rain Light Rain
4:53 PM 39.0 °F - 32.0 °F 76% 29.73 in 10.0 mi Calm Calm - 0.00 in Rain Light Rain
5:06 PM 37.9 °F - 34.0 °F 86% 29.75 in 10.0 mi Calm Calm - 0.00 in Rain Light Rain
5:25 PM 37.9 °F 35.5 °F 33.1 °F 83% 29.75 in 10.0 mi ESE 3.5 mph - 0.00 in   Overcast
5:34 PM 37.9 °F 34.4 °F 33.1 °F 83% 29.75 in 10.0 mi East 4.6 mph - 0.00 in Rain Light Rain
5:44 PM 37.9 °F 34.4 °F 33.1 °F 83% 29.75 in 10.0 mi ESE 4.6 mph - 0.00 in Rain Light Rain
5:53 PM 39.0 °F 34.0 °F 33.1 °F 79% 29.74 in 10.0 mi SE 6.9 mph - 0.00 in   Overcast
6:53 PM 39.9 °F 33.4 °F 34.0 °F 79% 29.75 in 10.0 mi SSE 10.4 mph - 0.00 in   Mostly Cloudy
7:53 PM 37.9 °F 33.5 °F 30.9 °F 76% 29.75 in 10.0 mi South 5.8 mph - N/A   Scattered Clouds
8:53 PM 36.0 °F 29.0 °F 30.9 °F 82% 29.74 in 10.0 mi SSE 9.2 mph - N/A   Partly Cloudy
9:53 PM 35.1 °F 27.9 °F 30.0 °F 82% 29.75 in 10.0 mi SSE 9.2 mph - N/A   Clear
10:53 PM 34.0 °F 26.6 °F 28.9 °F 82% 29.74 in 10.0 mi South 9.2 mph - N/A   Clear
11:53 PM 34.0 °F 27.2 °F 30.9 °F 89% 29.73 in 10.0 mi SSE 8.1 mph - N/A   Clear